Find METOP A

NORAD ID: 29499 Int'l Des: 2006-044 Owner: EUMET Country: I-EUM operational
LEORETROGRADESSO

Aktuelle Ansicht

3D-Globus wird geladen...

Über METOP A

Beschreibung wird geladen...

Nächste Überflüge

Passes for default location (London). Set your location on the main map for personalized predictions.

Höhenverlauf

Loading altitude history...

Zweizeiliger Elementsatz

1 29499U 06044A 26151.52914750 .00003808 00000-0 43812-3 0 9995
2 29499 98.3322 257.7105 0175268 122.3412 6.6786 14.75897048 22991
Epoch: 31. Mai 2026 • Age: 7 hours

Aktueller Status

Höhe 753.1 km
Geschwindigkeit 7.43 km/s
Subsatellitenpunkt -73.10°S, 136.53°W
Startdatum 19. Okt. 2006
Alter 19.6 years
Typ other

Technische Details

Klassifizierung Payload
Masse 4086.00 kg
Trockenmasse 3769.00 kg
Gesamtmasse 4086.00 kg
Länge 6.30 m
Durchmesser 3.40 m
Spannweite 17.60 m
Form Box + Pan
Hersteller EADSB
Bus-Typ Metop
Phasenstatus In Orbit
Besitzer/Staat EUMET/I-EUM

Most Searched